Wind_Speed
16 15 15 14 13 11 10 9 8 7 7 7 7 7 7 7 8 7 7 6 6 5 5 5 5 6 5 5 5 4 4 4 4 4 5 6 6 5 5 4 3 4 7 8 8 9 9 9 9 10 9 10
15 16 15 15 14 12 11 9 8 8 7 8 8 8 8 9 9 8 7 7 6 6 6 6 6 6 6 6 5 5 4 4 5 5 5 6 6 5 4 4 3 4 7 8 9 9 9 9 9 9 9 8
16 17 16 16 15 14 12 10 10 9 8 9 10 10 9 9 11 10 9 9 8 8 8 9 8 7 7 6 6 5 5 5 5 5 5 5 5 4 3 3 3 4 7 8 9 9 9 9 8 8 8 8
17 18 17 17 17 16 14 12 12 11 9 9 11 11 9 9 11 11 10 11 10 10 10 11 10 9 7 6 6 6 5 5 5 5 5 5 4 4 4 3 3 4 6 8 9 9 9 9 8 8 8 9
18 18 17 17 16 16 16 14 14 13 10 10 11 11 10 10 12 12 11 12 12 11 11 11 11 10 8 7 7 6 6 5 5 6 6 5 5 6 5 4 4 4 5 7 8 9 9 9 9 9 9 11
19 19 18 17 16 16 17 16 16 15 12 12 12 12 12 12 13 13 12 13 12 11 12 12 12 11 9 7 7 6 6 6 6 7 7 7 7 6 5 4 4 4 4 6 8 9 9 9 9 10 11 12
20 20 19 18 17 17 18 17 17 16 14 14 14 14 14 13 13 14 13 13 13 12 12 12 13 12 10 9 9 8 8 8 7 8 9 8 7 6 6 4 3 3 4 6 8 9 10 10 10 11 12 13
21 21 20 19 18 18 18 18 17 17 16 16 15 15 15 14 14 14 14 13 13 13 13 12 13 13 11 11 11 11 11 9 9 9 8 7 6 7 6 5 3 3 4 6 8 10 11 11 11 12 13 14
22 22 21 20 19 18 19 19 18 18 18 17 16 15 15 15 15 15 14 14 13 13 12 12 14 13 12 13 13 12 11 10 9 8 7 6 6 7 6 5 4 3 4 6 8 10 11 11 12 13 13 14
23 23 22 21 20 20 19 20 19 19 20 19 17 15 14 15 15 15 15 15 14 14 13 13 14 14 14 14 13 12 12 11 10 9 8 6 6 7 7 6 5 4 4 5 7 9 10 11 12 13 14 14
24 23 23 22 22 22 21 21 20 20 20 20 19 17 16 15 15 16 15 15 15 15 14 14 16 16 15 15 14 12 12 11 10 10 9 7 7 7 7 7 6 5 5 6 6 8 9 10 12 13 14 15
24 23 23 23 23 23 22 21 21 20 20 20 19 18 18 17 16 16 16 16 16 16 16 15 17 18 17 16 14 13 12 11 10 10 9 8 8 8 8 7 7 6 6 7 7 8 8 9 11 13 14 15
24 24 23 23 23 22 22 21 20 20 19 19 19 19 19 17 16 16 16 16 16 17 17 16 17 19 18 16 14 13 12 12 11 10 10 10 9 9 9 8 8 8 8 8 8 8 8 9 10 12 13 14
25 24 24 23 22 22 21 21 20 19 19 19 19 19 18 18 17 16 16 16 16 17 18 17 18 19 18 15 14 13 12 12 11 10 10 10 10 10 10 10 10 10 9 9 9 10 9 9 10 11 13 13
26 25 24 23 22 21 20 20 20 19 19 19 19 19 19 18 18 16 16 16 16 17 18 18 18 18 17 15 14 13 12 12 11 11 10 10 10 10 11 11 11 11 12 12 11 11 10 11 11 11 12 13
25 25 24 23 22 21 20 20 19 19 19 19 19 19 19 19 18 17 17 17 16 16 16 17 17 17 16 15 14 13 13 12 12 11 11 11 11 11 11 12 12 13 13 13 13 13 12 12 12 12 12 13
25 25 24 23 22 21 20 19 19 19 19 19 19 19 19 19 18 18 17 17 17 15 14 15 16 16 16 15 14 14 14 14 13 13 12 12 11 11 12 12 12 13 13 14 14 14 13 13 13 13 14 14
24 24 23 23 22 21 21 20 19 19 19 19 19 19 19 19 19 19 18 18 17 16 14 14 15 16 16 15 15 15 15 15 14 14 13 13 13 13 13 13 13 13 13 13 14 14 15 14 14 14 15 15
23 23 23 22 22 21 21 20 20 19 18 18 18 18 19 19 20 19 18 18 18 17 15 14 14 15 16 16 16 16 16 16 15 15 14 14 14 14 14 14 14 14 14 14 14 14 15 15 15 15 15 16
21 21 21 21 21 21 20 20 19 19 18 18 18 18 18 19 19 18 18 18 18 18 16 15 14 15 16 17 17 17 17 17 17 16 15 15 15 15 15 15 15 15 16 16 15 15 15 15 16 17 17 17
20 20 20 20 20 20 19 19 19 18 18 18 18 18 18 18 17 17 17 17 17 17 17 16 15 15 17 18 18 18 18 17 17 17 16 16 16 16 16 16 17 17 17 17 17 17 16 16 17 18 18 18
17 18 18 18 18 18 18 18 18 18 18 18 17 17 17 16 16 15 15 16 17 17 17 16 15 16 17 18 18 18 19 18 18 18 17 17 17 17 17 17 18 18 18 18 18 18 19 18 18 19 18 18
15 16 16 17 16 17 17 17 17 17 17 16 16 16 15 15 15 14 15 15 16 17 17 17 17 17 17 18 18 18 19 19 19 18 18 18 18 18 18 18 18 18 18 18 18 18 20 20 20 20 19 19
12 13 13 14 14 15 15 15 15 15 15 15 15 15 14 15 14 14 14 14 15 16 17 17 18 18 18 18 18 18 18 19 19 18 18 18 18 19 18 19 19 19 19 18 18 19 21 21 21 21 21 21
8 8 8 9 10 12 13 13 13 13 13 13 13 13 13 14 14 13 13 14 15 15 16 17 17 18 18 18 18 18 18 18 18 18 18 19 19 19 19 19 19 19 18 16 16 18 19 21 22 23 23 24
6 5 5 4 4 6 8 9 10 10 10 10 11 11 12 12 12 12 12 13 14 15 15 16 17 17 18 18 18 18 18 18 18 18 19 19 19 19 19 19 19 18 16 12 12 11 11 13 17 21 23 26
3 2 3 2 3 4 4 5 5 5 6 8 8 8 9 9 10 10 10 11 12 13 14 14 15 16 16 16 17 18 18 19 19 19 19 19 20 19 18 18 18 18 16 13 9 5 4 5 6 9 14 20
4 2 1 1 4 6 6 8 7 6 7 9 8 6 7 7 7 7 8 8 9 10 11 12 13 14 15 15 16 17 18 19 20 20 20 20 20 20 19 19 19 18 17 16 11 4 2 1 2 4 6 10
8 6 6 6 7 8 9 10 10 10 13 14 11 10 10 9 8 6 5 5 6 7 8 10 11 12 13 14 14 15 16 18 19 19 20 20 20 21 20 21 21 18 16 17 17 12 6 2 1 3 3 5
13 13 13 12 14 15 17 19 19 19 19 18 17 15 14 13 11 10 8 7 6 5 6 7 8 10 11 12 12 13 14 15 17 18 19 19 20 20 21 21 20 20 19 18 19 20 18 15 11 7 4 4
21 22 22 22 24 25 25 25 23 21 21 21 19 18 17 16 16 15 13 12 11 9 8 7 7 7 8 9 10 11 12 13 14 15 16 17 18 19 19 20 20 22 23 20 19 21 23 25 24 19 11 5
Wind_Direction
196 195 193 194 189 193 202 196 196 195 196 198 195 197 195 197 191 182 182 180 179 177 179 174 171 172 171 170 165 160 145 133 125 117 122 127 124 128 139 146 150 157 169 171 166 167 163 162 161 159 159 157
199 197 196 193 187 190 195 189 190 195 201 203 199 200 203 202 190 178 177 181 179 174 176 176 174 171 168 167 163 155 142 133 125 121 125 129 127 131 142 147 161 173 172 173 172 170 169 168 165 163 162 160
201 199 197 192 188 190 192 190 190 195 203 206 204 204 208 202 189 181 178 178 175 176 180 179 174 168 166 163 159 153 142 138 131 129 141 143 139 147 156 160 181 182 175 177 176 176 176 175 174 170 167 162
201 197 196 191 193 196 198 198 196 200 207 205 204 210 213 203 192 186 182 182 179 181 186 181 175 168 163 162 158 153 147 142 136 148 169 163 162 180 190 193 198 189 179 180 180 181 181 180 181 176 170 163
198 192 192 192 195 200 203 204 205 208 215 214 208 213 216 210 202 193 188 188 186 186 187 183 179 169 161 166 161 156 156 144 145 170 187 184 191 208 221 221 215 204 186 182 182 183 183 183 182 177 170 162
199 195 195 195 196 199 203 206 209 211 218 223 219 220 220 217 210 202 198 195 195 196 194 189 185 172 162 170 166 162 158 145 161 188 199 207 219 231 244 247 240 228 198 187 185 183 183 181 179 173 167 162
202 201 200 201 199 198 202 205 210 212 217 224 225 226 224 221 213 208 208 206 206 209 204 195 189 179 169 177 176 170 169 168 188 206 215 225 237 247 256 258 254 241 210 196 189 185 183 180 176 170 164 160
203 204 203 204 203 202 204 206 210 213 218 223 225 227 226 224 219 215 215 213 213 214 211 200 193 188 181 187 187 185 188 196 209 221 230 238 245 251 257 259 255 236 213 205 195 190 186 183 179 172 167 162
207 206 206 207 208 208 207 208 211 213 217 221 224 225 225 225 224 222 220 219 218 218 218 208 199 196 194 196 198 202 209 215 225 237 246 248 246 250 256 257 254 237 213 209 202 195 192 190 186 179 174 168
210 210 211 214 215 214 211 212 214 215 217 221 225 228 229 228 228 228 225 225 224 223 225 217 207 203 203 206 209 215 220 227 235 246 253 254 251 253 258 257 255 243 217 210 206 202 198 197 194 189 185 179
212 213 216 218 219 217 215 216 217 219 221 224 228 233 235 234 234 234 233 233 231 230 231 226 217 211 212 214 221 227 229 235 241 248 253 255 255 253 257 258 256 249 230 218 213 211 207 203 200 197 194 191
212 213 215 216 217 217 218 219 221 222 224 226 230 234 237 238 237 239 241 240 239 237 237 235 227 220 220 223 230 235 236 239 243 247 252 253 254 253 256 258 256 251 240 231 222 219 216 210 207 204 201 198
212 213 212 214 216 218 220 222 224 226 228 229 232 233 235 238 240 243 246 247 246 245 243 241 236 228 226 230 236 241 240 242 244 247 251 252 253 253 255 259 259 256 248 241 233 226 222 219 214 209 206 204
213 213 214 216 218 221 223 225 228 230 232 234 236 237 238 240 243 248 251 252 255 253 249 247 243 234 231 235 241 243 241 243 245 247 251 254 256 255 255 258 261 262 259 253 247 238 230 226 222 217 213 210
215 216 217 220 223 226 228 229 231 234 236 239 241 242 242 243 246 253 256 258 261 260 255 251 245 236 234 239 242 241 241 243 246 248 250 253 256 256 255 255 258 260 262 259 255 249 241 234 229 225 221 218
219 220 221 223 227 230 233 233 234 237 240 243 246 247 247 248 249 257 262 263 265 264 258 251 244 238 239 242 241 240 242 244 246 248 250 253 255 257 255 254 255 256 258 258 256 254 251 246 239 233 230 227
222 224 225 227 230 234 238 239 239 242 245 248 250 251 253 254 255 262 265 265 266 263 256 250 244 242 243 241 239 240 243 245 249 251 254 257 258 260 258 256 254 255 256 256 256 254 253 252 247 240 236 234
225 227 229 230 233 236 241 245 246 248 251 254 254 256 260 261 262 265 267 266 265 261 255 250 248 249 246 240 240 242 245 248 252 255 258 261 261 261 259 257 256 256 256 257 258 257 255 255 252 247 241 238
230 231 233 235 237 239 244 248 252 255 257 259 260 263 267 269 267 268 268 266 262 260 258 255 255 254 247 241 242 245 248 252 255 259 261 262 262 261 258 256 256 256 256 255 257 258 259 260 258 256 250 244
235 236 237 239 241 243 247 250 254 258 262 265 265 269 273 273 271 269 267 264 260 258 259 261 262 258 249 244 246 249 253 256 259 262 264 264 263 262 259 257 257 258 257 256 256 257 259 261 261 261 259 255
237 238 239 241 244 246 249 252 257 261 265 267 269 273 276 276 273 270 267 263 258 257 259 264 266 262 252 249 251 255 259 262 265 266 267 267 266 265 262 260 258 259 259 259 259 257 257 260 261 262 262 262
236 237 239 241 244 247 250 255 258 262 265 268 272 275 278 279 277 273 269 264 260 259 262 265 266 263 256 253 256 260 263 266 267 268 268 269 269 267 265 263 262 262 261 262 263 262 261 261 262 263 263 263
230 232 236 239 242 246 250 254 258 263 267 271 275 278 280 281 279 277 273 269 267 265 266 267 266 264 260 259 260 263 264 265 267 269 270 271 270 268 266 265 265 264 263 264 265 265 264 264 263 262 263 263
221 225 229 235 240 244 249 254 260 265 270 275 279 281 283 284 282 281 279 276 273 271 270 270 268 266 264 264 264 265 265 267 270 272 274 274 273 270 268 267 266 265 264 264 266 266 265 262 261 260 260 260
205 211 220 234 245 250 256 264 269 275 279 282 285 285 285 285 285 283 282 280 278 277 276 274 273 270 269 268 267 268 270 272 274 274 274 273 271 270 268 268 269 268 264 263 265 268 268 264 261 260 259 258
189 196 209 237 271 274 276 282 286 291 296 295 294 292 290 289 287 286 284 282 280 279 278 277 277 277 276 275 274 273 273 274 273 274 273 270 269 269 268 270 272 270 262 254 258 266 280 280 271 263 258 257
154 192 227 258 336 352 350 359 351 336 335 334 330 324 315 308 304 300 295 289 285 282 280 279 279 279 280 279 278 278 277 277 276 276 274 271 270 269 269 272 273 270 259 247 251 268 279 290 298 279 260 254
81 62 36 36 45 57 71 68 65 58 39 30 26 14 356 345 336 324 309 298 292 288 287 285 284 282 281 280 279 279 279 280 281 280 278 275 272 269 267 270 273 272 262 248 242 243 259 311 0 294 272 262
83 85 80 86 84 81 79 67 59 53 46 45 48 45 38 31 22 9 351 330 309 299 295 291 289 287 286 286 285 285 284 283 283 282 281 279 276 272 269 269 273 273 267 257 245 234 234 306 308 254 287 311
83 85 80 80 78 70 65 57 51 49 50 53 57 58 57 53 50 46 40 31 17 352 333 316 305 299 296 295 293 293 292 289 289 287 285 283 279 277 275 272 270 269 270 267 255 242 239 247 252 261 306 331
79 79 77 77 75 70 68 63 58 58 62 63 64 65 63 60 57 54 50 47 41 35 24 8 351 337 322 313 308 304 301 298 296 293 292 290 286 283 280 274 267 268 271 267 260 255 249 248 250 257 267 259
Height
823 824 825 827 829 830 832 833 834 835 836 837 837 838 838 839 839 840 840 841 841 842 842 843 844 845 846 846 847 847 848 848 848 848 847 848 848 848 848 847 847 847 848 849 849 850 851 851 852 852 852 852
823 824 826 827 828 830 831 832 834 835 836 837 837 837 838 838 838 839 840 840 841 842 843 844 844 845 846 847 847 847 848 848 848 848 848 848 848 848 848 848 848 848 848 849 850 851 851 852 852 852 852 852
822 824 825 827 828 829 831 832 834 835 835 836 836 837 837 838 838 839 839 840 842 842 843 844 844 845 846 847 847 847 847 848 848 848 848 848 848 848 848 848 848 848 849 850 850 851 852 852 853 853 853 853
822 823 825 826 827 828 830 832 833 834 835 836 836 837 838 838 839 839 840 841 842 842 843 844 845 846 846 847 847 847 847 848 848 848 848 848 848 848 848 848 848 849 849 850 850 851 852 852 853 853 854 854
821 823 824 825 826 828 829 831 833 834 835 835 836 837 838 839 840 840 841 841 842 842 843 844 845 846 847 847 847 848 848 848 848 847 847 847 848 848 848 848 849 849 849 850 851 851 852 852 853 853 854 854
821 822 823 825 826 827 828 830 832 834 835 836 837 838 839 840 840 841 841 842 842 843 843 844 845 846 846 847 847 848 848 848 848 847 847 847 847 848 848 849 849 849 850 850 851 852 852 853 853 854 854 855
821 822 823 824 825 826 828 829 831 833 835 836 837 838 839 840 840 841 841 842 843 843 844 844 845 846 846 847 847 847 847 847 847 847 847 847 848 848 848 849 849 850 850 851 851 852 853 853 854 854 855 855
820 821 822 824 825 826 827 829 830 832 834 836 837 838 839 839 840 841 841 842 842 843 844 844 845 845 846 846 846 847 847 847 847 847 847 848 848 848 848 849 849 850 850 851 851 852 853 854 854 855 855 856
820 821 822 823 824 825 827 828 830 832 834 835 836 837 838 839 840 841 841 842 842 842 843 844 844 845 845 846 846 847 847 847 847 847 848 848 848 848 848 849 849 850 850 851 852 853 853 854 855 855 856 856
819 820 822 823 824 825 827 828 829 831 833 834 835 837 838 838 839 840 841 841 842 842 843 843 844 845 845 846 847 847 847 848 848 848 848 848 848 849 849 849 850 850 851 851 852 853 853 854 854 855 856 856
819 820 821 823 824 825 826 827 829 830 832 833 834 836 837 838 839 839 840 841 841 842 842 843 844 845 845 846 847 847 848 848 848 848 848 848 849 849 849 849 850 850 851 852 852 853 853 853 854 855 855 856
818 820 821 822 823 825 826 827 828 830 831 832 833 835 836 837 838 839 840 840 841 842 842 843 844 845 845 846 847 847 848 848 848 848 848 849 849 849 850 850 850 851 851 852 852 853 853 853 854 854 855 855
817 819 820 821 823 824 825 827 828 829 830 831 832 834 835 836 837 838 839 840 841 841 842 843 844 844 845 846 846 847 847 848 848 848 849 849 849 849 850 850 851 851 851 852 852 853 853 853 854 854 854 855
816 817 819 821 822 823 825 826 827 828 829 830 831 832 834 835 836 838 839 839 840 841 842 842 843 844 845 845 846 846 847 847 848 848 849 849 849 850 850 850 850 851 851 852 852 853 853 853 854 854 854 855
815 817 818 820 821 823 824 825 826 827 828 829 830 832 833 834 836 837 838 839 839 840 841 842 842 843 844 845 845 846 846 847 848 848 848 849 849 850 850 850 850 850 851 851 852 852 853 853 853 854 854 854
814 816 817 819 820 822 823 824 825 826 827 829 830 831 832 833 835 836 837 838 838 839 840 841 842 843 843 844 845 845 846 846 847 847 848 848 849 849 850 850 850 850 850 850 851 851 852 852 853 853 853 854
814 815 817 818 820 821 822 823 824 826 827 828 829 830 832 833 834 835 836 837 837 838 839 840 841 842 843 844 844 845 846 846 846 847 847 848 848 849 849 849 849 850 850 850 850 851 851 852 852 852 853 853
813 814 816 817 819 820 821 823 824 825 826 828 829 830 831 832 833 834 835 835 836 837 838 839 840 841 842 843 844 844 845 845 846 846 847 847 848 848 848 849 849 849 849 850 850 850 850 851 851 851 852 852
812 814 815 817 818 820 821 822 824 825 826 827 828 830 830 831 832 832 833 834 835 836 837 838 839 840 841 842 843 844 844 845 846 846 847 847 847 847 848 848 848 848 849 849 849 849 850 850 850 851 851 851
812 814 815 817 818 820 821 822 824 825 826 827 828 829 830 830 831 831 832 833 834 835 836 837 838 839 840 841 842 843 844 845 845 845 846 846 846 846 847 847 847 847 848 848 848 849 849 849 849 849 850 850
811 813 815 817 818 820 821 822 823 825 825 827 828 828 829 829 830 831 831 832 833 834 836 837 837 839 840 841 842 842 843 844 844 845 845 845 845 845 845 846 846 846 846 847 847 847 847 847 847 848 848 848
811 813 815 816 818 819 821 822 823 824 825 826 827 828 828 829 829 830 831 832 833 834 835 836 837 838 839 840 840 841 842 842 843 843 844 844 844 844 844 844 844 845 845 845 845 845 846 846 846 846 846 846
811 813 815 816 818 819 820 822 823 824 825 825 826 827 828 828 829 830 831 831 832 833 834 835 836 837 838 838 839 840 840 841 841 842 842 842 843 843 843 843 843 843 844 844 844 844 844 844 844 844 844 844
811 813 815 816 818 819 820 821 823 823 824 825 826 827 827 828 829 829 830 831 832 833 833 834 835 836 837 837 838 838 839 839 840 841 841 841 841 842 842 842 842 842 842 842 842 842 841 841 841 842 842 842
812 814 815 817 819 820 821 822 823 824 825 826 826 827 828 828 829 830 830 831 832 832 833 833 834 835 836 836 837 837 837 838 839 839 840 840 840 840 840 840 840 841 841 841 840 840 839 839 839 839 839 839
813 815 816 818 820 821 822 823 824 825 826 826 827 827 828 828 829 829 830 831 831 832 833 833 834 834 835 835 836 836 836 837 838 838 839 839 839 839 839 839 839 840 840 840 839 839 839 837 836 836 836 836
814 815 817 818 820 821 822 824 824 826 826 826 827 827 827 828 828 829 829 830 830 831 831 832 833 833 834 834 835 835 835 836 836 837 838 838 838 838 838 838 838 838 839 839 839 840 839 838 836 834 833 833
814 815 817 819 820 822 822 824 825 825 826 826 827 827 827 827 827 828 828 829 829 830 830 831 831 832 832 833 834 834 834 835 835 836 836 837 837 837 837 836 836 837 837 838 839 840 839 839 838 835 832 831
814 815 817 819 820 821 822 823 824 825 826 826 826 826 827 827 827 827 827 828 828 828 829 829 830 830 831 832 832 833 833 834 834 835 835 835 835 836 835 835 835 835 836 837 838 838 838 839 837 835 833 831
815 816 817 819 820 822 823 824 826 827 828 828 828 828 828 828 828 828 827 827 827 828 828 828 829 829 829 830 830 831 832 832 833 833 834 834 834 834 834 834 834 834 834 835 836 836 837 836 835 834 835 834
817 818 819 820 822 824 826 828 830 832 831 831 831 830 830 829 829 828 828 828 828 828 828 828 828 828 828 829 829 829 830 830 831 831 832 832 832 833 833 833 833 832 833 833 833 834 835 834 834 834 834 835